Tyler, TX

10:52 PM CST on February 12, 2016 (GMT -0600)
Tyler Pounds

Weather History for KTYR - April, 2014

Change the Weather History Date:

Thursday, April 24, 2014

  Actual Average Record
Temperature  
Mean Temperature 73 °F 67 °F  
Max Temperature 83 °F 77 °F 91 °F (1925)
Min Temperature 63 °F 57 °F 40 °F (2005)
Degree Days  
Heating Degree Days 0 1  
Month to date heating degree days 97 91  
Since 1 July heating degree days 2510 2256  
Cooling Degree Days 8 3  
Month to date cooling degree days 85 53  
Year to date cooling degree days 101 86  
Growing Degree Days 24 (Base 50)    
Moisture  
Dew Point 60 °F    
Average Humidity 63    
Maximum Humidity 87    
Minimum Humidity 39    
Precipitation  
Precipitation 0.00 in 0.13 in 4.29 in (1966)
Month to date precipitation 2.47 2.41  
Year to date precipitation 8.77 13.40  
Snow  
Snow 0.00 in - - ()
Month to date snowfall 0.0  
Since 1 July snowfall 1.2  
Snow Depth 0.00 in    
Sea Level Pressure  
Sea Level Pressure 29.82 in    
Wind  
Wind Speed 12 mph (SSW)    
Max Wind Speed 24 mph    
Max Gust Speed 32 mph    
Visibility 10 miles    
Events      
T = Trace of Precipitation, MM = Missing Value Source: NWS Daily Summary

Daily Weather History Graph

Daily Weather History Graph

Search for Another Location

Airport or City:

Trip Planner

Search our weather history database for the weather conditions in past years. The results will help you decide how hot, cold, wet, or windy it might be!

Date:

Astronomy

Apr. 24, 2014 Rise Set
Actual Time 6:42 AM CDT 7:57 PM CDT
Civil Twilight 6:16 AM CDT 8:23 PM CDT
Nautical Twilight 5:46 AM CDT 8:54 PM CDT
Astronomical Twilight 5:14 AM CDT 9:25 PM CDT
Moon 3:36 AM CDT (4/24) 3:30 PM CDT (4/24)
Length of Visible Light 14h 06m
Length of Day
13h 15m
Waning Crescent, 24% of the Moon is Illuminated
Apr 24
Waning Crescent
Apr 29
New
May 6
First Quarter
May 14
Full
May 21
Last Quarter

Hourly Weather History & Observations

Time (CDT) Temp. Heat Index Dew Point Humidity Pressure Visibility Wind Dir Wind Speed Gust Speed Precip Events Conditions
12:53 AM 71.1 °F - 61.0 °F 70% 29.80 in 10.0 mi SSE 13.8 mph 20.7 mph N/A   Clear
1:53 AM 70.0 °F - 61.0 °F 73% 29.78 in 10.0 mi South 10.4 mph - N/A   Clear
2:53 AM 68.0 °F - 62.1 °F 81% 29.80 in 10.0 mi South 9.2 mph - N/A   Clear
3:24 AM 68.0 °F - 62.6 °F 83% 29.82 in 10.0 mi South 9.2 mph - N/A   Mostly Cloudy
3:53 AM 68.0 °F - 63.0 °F 84% 29.79 in 10.0 mi South 10.4 mph - N/A   Overcast
4:28 AM 68.0 °F - 62.6 °F 83% 29.82 in 10.0 mi South 11.5 mph - N/A   Overcast
4:53 AM 68.0 °F - 62.1 °F 81% 29.80 in 10.0 mi South 11.5 mph - N/A   Overcast
5:53 AM 68.0 °F - 62.1 °F 81% 29.81 in 10.0 mi South 10.4 mph - N/A   Overcast
6:26 AM 68.0 °F - 62.6 °F 83% 29.82 in 10.0 mi South 9.2 mph - N/A   Overcast
6:53 AM 66.9 °F - 62.1 °F 84% 29.80 in 10.0 mi South 11.5 mph - N/A   Partly Cloudy
7:26 AM 68.0 °F - 62.6 °F 83% 29.83 in 10.0 mi South 10.4 mph - N/A   Mostly Cloudy
7:53 AM 68.0 °F - 62.1 °F 81% 29.81 in 10.0 mi South 10.4 mph - N/A   Mostly Cloudy
8:53 AM 70.0 °F - 62.1 °F 76% 29.81 in 10.0 mi South 17.3 mph 24.2 mph N/A   Overcast
9:53 AM 71.1 °F - 61.0 °F 70% 29.83 in 10.0 mi SSW 15.0 mph - N/A   Overcast
10:10 AM 73.4 °F - 62.6 °F 69% 29.84 in 10.0 mi SSW 15.0 mph - N/A   Mostly Cloudy
10:53 AM 75.0 °F - 62.1 °F 64% 29.81 in 10.0 mi South 23.0 mph 27.6 mph N/A   Mostly Cloudy
11:53 AM 75.0 °F - 61.0 °F 62% 29.82 in 10.0 mi SSW 21.9 mph 32.2 mph N/A   Mostly Cloudy
12:53 PM 75.0 °F - 62.1 °F 64% 29.82 in 10.0 mi SW 16.1 mph 23.0 mph N/A   Overcast
1:20 PM 75.2 °F - 62.6 °F 65% 29.85 in 10.0 mi SSW 13.8 mph 21.9 mph N/A   Overcast
1:45 PM 78.8 °F - 62.6 °F 57% 29.84 in 10.0 mi SW 18.4 mph 24.2 mph N/A   Mostly Cloudy
1:53 PM 78.1 °F - 63.0 °F 60% 29.82 in 10.0 mi SSW 20.7 mph 27.6 mph N/A   Mostly Cloudy
2:53 PM 79.0 °F - 63.0 °F 58% 29.81 in 10.0 mi SW 15.0 mph - N/A   Scattered Clouds
3:53 PM 79.0 °F - 63.0 °F 58% 29.78 in 10.0 mi SSW 13.8 mph - N/A   Mostly Cloudy
4:53 PM 81.0 °F 82.5 °F 64.0 °F 56% 29.78 in 10.0 mi SSW 11.5 mph - N/A   Mostly Cloudy
5:53 PM 82.0 °F 83.4 °F 64.0 °F 54% 29.78 in 10.0 mi SW 9.2 mph - N/A   Partly Cloudy
6:53 PM 81.0 °F 80.4 °F 53.1 °F 38% 29.79 in 10.0 mi NW 12.7 mph 20.7 mph N/A   Clear
7:53 PM 75.0 °F - 53.1 °F 46% 29.82 in 10.0 mi NNW 5.8 mph - N/A   Clear
8:53 PM 72.0 °F - 53.1 °F 51% 29.86 in 10.0 mi NW 6.9 mph - N/A   Clear
9:53 PM 69.1 °F - 51.1 °F 53% 29.90 in 10.0 mi NW 5.8 mph - N/A   Clear
10:53 PM 66.9 °F - 51.1 °F 57% 29.91 in 10.0 mi Calm Calm - N/A   Clear
11:53 PM 64.9 °F - 51.1 °F 61% 29.93 in 10.0 mi NNW 4.6 mph - N/A   Clear